Regional Weather Roundup
Issued by NWS

Home | Current Version | Previous Version | Text Only | Print | Product List | Glossary Off
Versions: 1 2 3 4 5 6 7 8 9 10 11 12 13 14 15 16 17 18 19 20 21 22 23 24 25 26 27 28 29 30 31 32 33 34 35 36 37 38 39 40 41 42 43 44 45 46 47 48 49 50

000
ASUS43 KLOT 241803
RWRIL

ILLINOIS REGIONAL WEATHER ROUNDUP
NATIONAL WEATHER SERVICE CHICAGO/ROMEOVILLE IL
1200 PM CST SAT FEB 24 2018

NOTE: "FAIR" INDICATES FEW OR NO CLOUDS BELOW 12,000 FEET WITH NO
SIGNIFICANT WEATHER AND/OR OBSTRUCTIONS TO VISIBILITY.

* THESE STATIONS ARE NOT UNDER NWS QUALITY CONTROL. THEY ALSO MAY NOT
  REPORT WEATHER SUCH AS PRECIPITATION OR FOG.

ILZ001-002-007-009-015-016-024-241900-
NORTHWEST ILLINOIS

CITY           SKY/WX    TMP DP  RH WIND       PRES   REMARKS
MOLINE         LGT RAIN  37  34  89 E18       29.95F FOG     WCI  27
6HR MIN TEMP:  32; 6HR MAX TEMP:  37; 6HR PCP:  0.02;

STERLING*      CLOUDY    36  32  85 E20       29.99F WCI  25
SAVANNA*       CLOUDY    36  31  82 E14G20    30.00F WCI  27
$$

ILZ003-004-008-010-011-017-018-241900-
NORTH CENTRAL ILLINOIS

CITY           SKY/WX    TMP DP  RH WIND       PRES   REMARKS
ROCKFORD       CLOUDY    36  29  75 E16       30.03F WCI  26
6HR MIN TEMP:  30; 6HR MAX TEMP:  37; 6HR PCP: TRACE;

FREEPORT*      CLOUDY    36  31  83 E21       30.01F WCI  25
ROCHELLE*      CLOUDY    37  32  84 E13       30.02F WCI  28
DE KALB*       CLOUDY    37  33  83 E13       30.01F WCI  29
PERU*          CLOUDY    37  35  90 E10       30.01F FOG     WCI  30
$$

ILZ005-006-012>014-019>023-241900-
NORTHEAST ILLINOIS

CITY           SKY/WX    TMP DP  RH WIND       PRES   REMARKS
CHICAGO-OHARE  CLOUDY    39  31  72 E14       30.03F WCI  31
6HR MIN TEMP:  34; 6HR MAX TEMP:  39;

CHICAGO-MIDWAY CLOUDY    39  32  76 E12G21    30.03F WCI  32
6HR MIN TEMP:  35; 6HR MAX TEMP:  39;

AURORA         CLOUDY    40  33  76 E10       30.01F
6HR MIN TEMP:  33; 6HR MAX TEMP:  40;

LANSING*       CLOUDY    43  39  85 E12       30.02F
JOLIET*        CLOUDY    42  36  79 NE10      30.01F
WAUKEGAN       CLOUDY    36  32  85 E14       30.05F WCI  27
6HR MIN TEMP:  32; 6HR MAX TEMP:  37;

DUPAGE AIRPORT CLOUDY    38  33  82 E15       30.00F HAZE    WCI  29
6HR MIN TEMP:  33; 6HR MAX TEMP:  38;

KANKAKEE*      CLOUDY    41  38  90 E14       30.01F
WHEELING       CLOUDY    38  32  79 E14       30.06F WCI  30
6HR MIN TEMP:  35; 6HR MAX TEMP:  38;

MORRIS*        CLOUDY    41  36  84 E9        30.00F
ROMEOVILLE*    CLOUDY    40  35  81 E14       30.01F
NORTHERLY ISL    N/A     35  31  85 NE12        N/A  WCI  27
$$

LMZ740>746-241900-
SOUTHERN LAKE MICHIGAN

STATION/POSITION SKY/WX   TEMP    WIND        PRES    VSBY  WAVE
                          AIR SEA DIR/SP/G                  HT/PER
                          (F)     (DEG/KT/KT) (MB)    (MI)  (FT/S)
HARRISON CRIB              34      60/ 15/ 16   N/A
BURNHAM HARBOR             35      40/ 11/ 13   N/A
CALUMET HARBOR             35      20/ 11/ 15 1017.5F
BURNS HARBOR               42     110/ 11/ 17 1017.9F
MICHIGAN CITY              41      80/ 15/ 18   N/A
$$

ILZ025>027-034>036-040-047-049-050-058-095>099-241900-
WEST-CENTRAL ILLINOIS

CITY           SKY/WX    TMP DP  RH WIND       PRES   REMARKS
QUINCY         CLOUDY    38  37  97 E14       29.88F WCI  30
GALESBURG*     LGT RAIN  37  37 100 E13G22    29.94F WCI  29
MACOMB*        CLOUDY   N/A N/A N/A E14       29.94F FOG
JACKSONVILLE*  CLOUDY    40  39  97 E13       29.92F FOG
PITTSFIELD*    CLOUDY    40  40  99 E6        29.91F FOG
$$

ILZ028>032-037-038-041>044-048-051>054-059>061-241900-
CENTRAL ILLINOIS

CITY           SKY/WX    TMP DP  RH WIND       PRES   REMARKS
PONTIAC        CLOUDY    41  40  99 E15       29.99F FOG
BLOOMINGTON    LGT RAIN  41  40  96 E15       29.95F FOG
DECATUR        CLOUDY    44  44 100 E14       29.93F
PEORIA         LGT RAIN  40  38  93 E12       29.95F FOG
6HR MIN TEMP:  33; 6HR MAX TEMP:  40;

LACON*         DRIZZLE   38  38  98 E9        29.98F WCI  32
LINCOLN*       DRIZZLE   43  43 100 E13       29.94F
SPRINGFIELD    CLOUDY    43  42  97 E12       29.92F
6HR MIN TEMP:  37; 6HR MAX TEMP:  43; 6HR PCP:  0.12;

TAYLORVILLE    CLOUDY    44  43  99 E9        29.92F
6HR MIN TEMP:  37; 6HR MAX TEMP:  44; 6HR PCP:  0.03;

$$

ILZ033-039-045-046-055>057-062-063-241900-
EAST-CENTRAL ILLINOIS

CITY           SKY/WX    TMP DP  RH WIND       PRES   REMARKS
CHAMPAIGN      LGT RAIN  45  44  97 E17       29.95F
DANVILLE*      DRIZZLE   44  43  95 E12       29.96F
RANTOUL*       CLOUDY    45  45  97 E13       29.97F
MATTOON        CLOUDY    48  46  93 E9        29.93F
PARIS*         CLOUDY    47  46  97 E9        29.97F
$$

ILZ079-100>102-241900-
SOUTHWEST ILLINOIS

CITY           SKY/WX    TMP DP  RH WIND       PRES   REMARKS
ALTON          CLOUDY    45  45 100 E9        29.91F
BELLEVILLE     CLOUDY    53  51  93 E5        29.87F
CAHOKIA*       CLOUDY    48  46  93 NE6       29.88F FOG
SPARTA*        CLOUDY    52  52 100 SE12G17   29.90F
$$

ILZ064>066-069>071-074>076-080>082-084>086-088>090-092>094-241900-
SOUTH-CENTRAL ILLINOIS

CITY           SKY/WX    TMP DP  RH WIND       PRES   REMARKS
CARBONDALE     NOT AVBL
CAIRO*         CLOUDY    54  53  99 NE6       29.88F
EFFINGHAM*     CLOUDY    49  49 100 E7        29.94F
MARION         CLOUDY    50  50 100 E8        29.91F
MT. VERNON     CLOUDY    55  53  93 SE13      29.91F
CENTRALIA*     CLOUDY    55  54  94 SE14      29.89F
SALEM*         CLOUDY    55  52  89 SE8       29.90F
METROPOLIS*    CLOUDY    55  54  97 E3        29.91F
$$

ILZ067-068-072-073-078-083-087-091-241900-
SOUTHEAST ILLINOIS

CITY           SKY/WX    TMP DP  RH WIND       PRES   REMARKS
LAWRENCEVILLE  CLOUDY    54  52  93 SE14      29.93F
FLORA*         CLOUDY    55  53  93 SE13      29.92F
FAIRFIELD*     CLOUDY    53  53 100 MISG      29.92F
HARRISBURG*    CLOUDY    51  51 100 E10       29.93F
ROBINSON*      CLOUDY    51  50  98 E6        29.95F
CARMI*         CLOUDY    53  53  99 SE16      29.92F FOG
$$

ABBREVIATIONS USED IN REMARKS
   TC - TEMPERATURE IN CELSIUS
  WCI - WIND CHILL INDEX
   HX - HEAT INDEX
  VSB - VISIBILITY
$$




USA.gov is the U.S. government's official web portal to all federal, state and local government web resources and services.